• în Republica Moldova
  • Lista ţărilor
  • Pe 7 zile
  • Temperatura apei
  • Hartă satelitară
  • Meteo pe hartă
  • Widget-uri
  • user-avatar
    Intrare

    Meteo pe oră la Chişinău

    Astăzi, 24 Aprilie, Miercuri

    Timp Temperatura Precipitaţii Vânt Presiune Umiditate
    00:00 +8°C° 0 mm 2 m/s 762 mmHg 54%
    01:00 +8°C° 0 mm 2 m/s 762 mmHg 54%
    02:00 +8°C° 0 mm 2 m/s 762 mmHg 54%
    03:00 +8°C° 0 mm 2 m/s 762 mmHg 55%
    04:00 +7°C° 0 mm 2 m/s 762 mmHg 55%
    05:00 +7°C° 0 mm 2 m/s 762 mmHg 56%
    06:00 +9°C° 0 mm 2 m/s 762 mmHg 53%
    07:00 +10°C° 0 mm 3 m/s 762 mmHg 51%
    08:00 +12°C° 0 mm 4 m/s 762 mmHg 48%
    09:00 +13°C° 0 mm 4 m/s 763 mmHg 44%
    10:00 +15°C° 0 mm 5 m/s 763 mmHg 40%
    11:00 +16°C° 0 mm 5 m/s 763 mmHg 37%
    12:00 +17°C° 0 mm 5 m/s 762 mmHg 36%
    13:00 +19°C° 0 mm 5 m/s 762 mmHg 35%
    14:00 +19°C° 0 mm 5 m/s 762 mmHg 34%
    15:00 +19°C° 0 mm 5 m/s 762 mmHg 36%
    16:00 +19°C° 0 mm 5 m/s 762 mmHg 38%
    17:00 +17°C° 0 mm 5 m/s 761 mmHg 41%
    18:00 +17°C° 0 mm 4 m/s 761 mmHg 47%
    19:00 +14°C° 0 mm 4 m/s 761 mmHg 52%
    20:00 +12°C° 0 mm 3 m/s 762 mmHg 58%
    21:00 +11°C° 0 mm 3 m/s 762 mmHg 60%
    22:00 +10°C° 0 mm 3 m/s 762 mmHg 62%
    23:00 +10°C° 0 mm 3 m/s 762 mmHg 64%

    Mâine, 25 Aprilie, Joi

    Timp Temperatura Precipitaţii Vânt Presiune Umiditate
    00:00 +9°C° 0 mm 2 m/s 762 mmHg 65%
    01:00 +9°C° 0 mm 2 m/s 762 mmHg 65%
    02:00 +8°C° 0 mm 2 m/s 762 mmHg 66%
    03:00 +8°C° 0 mm 2 m/s 762 mmHg 67%
    04:00 +8°C° 0 mm 2 m/s 762 mmHg 67%
    05:00 +7°C° 0 mm 2 m/s 762 mmHg 68%
    06:00 +9°C° 0 mm 2 m/s 762 mmHg 63%
    07:00 +11°C° 0 mm 3 m/s 762 mmHg 59%
    08:00 +12°C° 0 mm 3 m/s 762 mmHg 55%
    09:00 +14°C° 0 mm 4 m/s 762 mmHg 51%
    10:00 +17°C° 0 mm 4 m/s 762 mmHg 48%
    11:00 +17°C° 0 mm 5 m/s 762 mmHg 44%
    12:00 +19°C° 0 mm 5 m/s 761 mmHg 43%
    13:00 +20°C° 0 mm 5 m/s 761 mmHg 41%
    14:00 +21°C° 0 mm 5 m/s 760 mmHg 40%
    15:00 +21°C° 0 mm 5 m/s 760 mmHg 41%
    16:00 +20°C° 0 mm 5 m/s 760 mmHg 43%
    17:00 +20°C° 0 mm 5 m/s 760 mmHg 44%
    18:00 +17°C° 0 mm 5 m/s 760 mmHg 49%
    19:00 +15°C° 0 mm 4 m/s 760 mmHg 54%
    20:00 +13°C° 0 mm 4 m/s 760 mmHg 59%
    21:00 +12°C° 0 mm 4 m/s 760 mmHg 60%
    22:00 +11°C° 0 mm 3 m/s 760 mmHg 60%
    23:00 +10°C° 0 mm 3 m/s 760 mmHg 60%

    Poimâine, 26 Aprilie, Vineri

    Timp Temperatura Precipitaţii Vânt Presiune Umiditate
    00:00 +10°C° 0 mm 3 m/s 760 mmHg 62%
    01:00 +9°C° 0 mm 3 m/s 760 mmHg 64%
    02:00 +9°C° 0 mm 3 m/s 759 mmHg 66%
    03:00 +8°C° 0 mm 3 m/s 759 mmHg 67%
    04:00 +8°C° 0 mm 3 m/s 759 mmHg 69%
    05:00 +8°C° 0 mm 2 m/s 759 mmHg 71%
    06:00 +9°C° 0 mm 3 m/s 759 mmHg 65%
    07:00 +11°C° 0 mm 3 m/s 759 mmHg 60%
    08:00 +13°C° 0 mm 4 m/s 759 mmHg 55%
    09:00 +15°C° 0 mm 4 m/s 759 mmHg 49%
    10:00 +16°C° 0 mm 5 m/s 759 mmHg 44%
    11:00 +19°C° 0 mm 5 m/s 759 mmHg 38%
    12:00 +20°C° 0 mm 5 m/s 758 mmHg 38%
    13:00 +21°C° 0 mm 6 m/s 758 mmHg 37%
    14:00 +22°C° 0 mm 6 m/s 757 mmHg 37%
    15:00 +21°C° 0 mm 6 m/s 757 mmHg 38%
    16:00 +21°C° 0 mm 6 m/s 757 mmHg 40%
    17:00 +21°C° 0 mm 5 m/s 757 mmHg 41%
    18:00 +19°C° 0 mm 5 m/s 757 mmHg 46%
    19:00 +16°C° 0 mm 5 m/s 757 mmHg 52%
    20:00 +15°C° 0 mm 4 m/s 757 mmHg 57%
    21:00 +14°C° 0 mm 4 m/s 757 mmHg 58%
    22:00 +13°C° 0 mm 4 m/s 756 mmHg 60%
    23:00 +12°C° 0 mm 4 m/s 756 mmHg 62%

    27 Aprilie, Sâmbătă

    Timp Temperatura Precipitaţii Vânt Presiune Umiditate
    00:00 +12°C° 0 mm 4 m/s 756 mmHg 63%
    01:00 +11°C° 0 mm 4 m/s 756 mmHg 64%
    02:00 +11°C° 0 mm 4 m/s 755 mmHg 65%
    03:00 +10°C° 0 mm 4 m/s 755 mmHg 66%
    04:00 +10°C° 0 mm 4 m/s 755 mmHg 68%
    05:00 +10°C° 0 mm 4 m/s 755 mmHg 70%
    06:00 +11°C° 0 mm 4 m/s 755 mmHg 65%
    07:00 +13°C° 0 mm 5 m/s 755 mmHg 61%
    08:00 +15°C° 0 mm 6 m/s 755 mmHg 57%
    09:00 +16°C° 0 mm 6 m/s 754 mmHg 53%
    10:00 +18°C° 0 mm 7 m/s 754 mmHg 48%
    11:00 +21°C° 0 mm 7 m/s 754 mmHg 44%
    12:00 +22°C° 0 mm 7 m/s 754 mmHg 43%
    13:00 +22°C° 0 mm 7 m/s 753 mmHg 41%
    14:00 +23°C° 0 mm 6 m/s 753 mmHg 40%
    15:00 +23°C° 0 mm 6 m/s 752 mmHg 41%
    16:00 +23°C° 0 mm 6 m/s 752 mmHg 42%
    17:00 +22°C° 0 mm 6 m/s 751 mmHg 43%
    18:00 +20°C° 0 mm 5 m/s 751 mmHg 48%
    19:00 +19°C° 0 mm 5 m/s 751 mmHg 52%
    20:00 +16°C° 0 mm 5 m/s 751 mmHg 57%
    21:00 +15°C° 0 mm 4 m/s 752 mmHg 59%
    22:00 +14°C° 0 mm 4 m/s 752 mmHg 61%
    23:00 +13°C° 0 mm 4 m/s 752 mmHg 63%

    28 Aprilie, Duminică

    Timp Temperatura Precipitaţii Vânt Presiune Umiditate
    00:00 +12°C° 0 mm 4 m/s 752 mmHg 64%
    01:00 +11°C° 0 mm 3 m/s 751 mmHg 65%
    02:00 +11°C° 0 mm 3 m/s 751 mmHg 66%
    03:00 +10°C° 0 mm 3 m/s 751 mmHg 67%
    04:00 +10°C° 0 mm 3 m/s 751 mmHg 69%
    05:00 +9°C° 0 mm 2 m/s 751 mmHg 71%
    06:00 +11°C° 0 mm 3 m/s 752 mmHg 67%
    07:00 +12°C° 0 mm 3 m/s 752 mmHg 63%
    08:00 +13°C° 0 mm 3 m/s 752 mmHg 58%
    09:00 +16°C° 0 mm 3 m/s 752 mmHg 51%
    10:00 +18°C° 0 mm 4 m/s 753 mmHg 43%
    11:00 +20°C° 0 mm 4 m/s 753 mmHg 35%
    12:00 +21°C° 0 mm 4 m/s 753 mmHg 33%
    13:00 +21°C° 0 mm 4 m/s 752 mmHg 31%
    14:00 +22°C° 0 mm 4 m/s 752 mmHg 28%
    15:00 +22°C° 0 mm 3 m/s 752 mmHg 32%
    16:00 +21°C° 0 mm 3 m/s 752 mmHg 35%
    17:00 +21°C° 0 mm 3 m/s 752 mmHg 38%
    18:00 +20°C° 0 mm 3 m/s 753 mmHg 42%
    19:00 +18°C° 0 mm 2 m/s 753 mmHg 46%
    20:00 +16°C° 0 mm 2 m/s 753 mmHg 50%
    21:00 +16°C° 0 mm 2 m/s 753 mmHg 55%
    22:00 +15°C° 0 mm 2 m/s 753 mmHg 61%
    23:00 +14°C° 0 mm 2 m/s 754 mmHg 66%

    29 Aprilie, Luni

    Timp Temperatura Precipitaţii Vânt Presiune Umiditate
    00:00 +13°C° 0 mm 2 m/s 754 mmHg 68%
    01:00 +13°C° 0 mm 1 m/s 754 mmHg 70%
    02:00 +12°C° 0 mm 1 m/s 754 mmHg 73%
    03:00 +12°C° 0 mm 1 m/s 754 mmHg 75%
    04:00 +12°C° 0 mm 1 m/s 754 mmHg 77%
    05:00 +10°C° 0 mm 0 m/s 753 mmHg 80%
    06:00 +12°C° 0 mm 0 m/s 754 mmHg 74%
    07:00 +14°C° 0 mm 0 m/s 754 mmHg 69%
    08:00 +16°C° 0 mm 0 m/s 754 mmHg 63%
    09:00 +19°C° 0 mm 1 m/s 754 mmHg 55%
    10:00 +21°C° 0 mm 1 m/s 754 mmHg 47%
    11:00 +21°C° 0 mm 2 m/s 754 mmHg 39%
    12:00 +23°C° 0 mm 2 m/s 754 mmHg 35%
    13:00 +24°C° 0 mm 2 m/s 753 mmHg 32%
    14:00 +25°C° 0 mm 2 m/s 753 mmHg 28%
    15:00 +25°C° 0 mm 2 m/s 753 mmHg 29%
    16:00 +25°C° 0 mm 2 m/s 752 mmHg 30%
    17:00 +25°C° 0 mm 2 m/s 752 mmHg 31%
    18:00 +23°C° 0 mm 2 m/s 752 mmHg 38%
    19:00 +20°C° 0 mm 3 m/s 752 mmHg 45%
    20:00 +18°C° 0 mm 3 m/s 752 mmHg 53%
    21:00 +17°C° 0 mm 3 m/s 752 mmHg 54%
    22:00 +16°C° 0 mm 2 m/s 752 mmHg 55%
    23:00 +15°C° 0 mm 2 m/s 752 mmHg 57%
    Arată mai mult